Location: Alfortville
(48.8058°N, 2.4204°E)
Time: 16:17:32
(UTC+00:00)

BlueWalker 3 - Visible Passes

Search period start: 07 December 2025 00:00
Search period end: 17 December 2025 00:00
Orbit: 455 x 462 km, 53.2° (Epoch: 06 December)

Date Brightness Start Highest point End Pass type
(mag) Time Alt. Az. Time Alt. Az. Time Alt. Az.
07 Dec 1.8 17:00:49 10° WNW 17:04:27 81° SSW 17:08:04 10° ESE visible
07 Dec 4.3 18:39:07 10° W 18:41:32 17° SW 18:42:35 15° SSW visible
08 Dec 1.7 16:25:59 10° WNW 16:29:37 86° NNE 16:33:15 10° ESE visible
08 Dec 4.2 18:04:01 10° W 18:06:48 21° SW 18:09:35 10° S visible
09 Dec 4.0 17:29:00 10° W 17:32:03 26° SW 17:35:06 10° SSE visible
10 Dec 3.8 16:54:01 10° WNW 16:57:16 31° SW 17:00:31 10° SSE visible
13 Dec 5.4 16:48:28 10° WSW 16:49:39 11° SW 16:50:49 10° SSW visible
